Wind_Speed
10 10 9 9 9 9 9 9 9 10 9 9 9 10 11 12 12 13 14 15 14 14 14 13 13 14 15 15 16 15 16 16 16 16 16 16 16 16 16 16 16 16 16
12 12 11 11 11 11 11 11 11 11 11 12 12 12 13 14 14 14 15 15 15 15 15 15 15 15 16 17 17 17 17 18 18 18 18 18 17 17 17 17 17 17 17
13 12 12 12 12 12 12 12 13 13 13 14 14 15 15 15 15 16 16 17 17 17 17 17 17 18 18 18 19 19 19 20 20 19 19 19 18 18 18 19 18 18 19
13 14 13 12 13 13 13 13 13 14 14 15 15 16 17 17 17 17 18 19 19 19 18 19 19 20 20 20 20 21 21 21 21 21 21 21 21 21 20 19 19 20 20
16 15 14 14 14 14 15 15 15 15 16 16 17 18 19 19 19 19 20 21 21 20 20 21 22 22 22 22 22 22 22 23 23 23 23 23 23 23 22 21 22 22 22
17 17 17 16 16 16 17 17 18 19 19 19 19 20 21 21 21 21 22 22 23 23 23 24 24 23 23 23 23 23 23 24 25 26 25 24 25 25 24 24 23 23 24
19 18 18 18 18 18 19 19 20 21 21 21 21 22 22 23 23 24 24 24 24 24 24 25 24 24 24 24 24 25 25 26 26 27 26 26 26 26 26 26 25 25 25
21 20 20 20 20 21 22 22 22 22 22 22 23 23 24 24 25 25 25 25 24 25 25 25 25 25 25 26 25 26 26 26 26 26 26 26 26 27 26 27 26 26 26
23 22 22 22 22 22 22 22 22 23 23 24 24 25 25 25 26 26 25 26 26 26 26 26 26 26 27 27 27 26 27 27 27 27 26 26 26 27 27 27 27 27 26
25 25 24 24 24 24 24 23 24 24 24 25 25 26 26 27 27 27 27 27 27 27 27 28 27 28 28 28 28 28 28 27 27 27 27 27 27 27 27 27 28 28 28
26 26 26 26 26 26 25 25 25 25 25 25 26 27 27 27 27 28 28 28 28 28 28 28 28 29 29 30 30 29 29 29 29 29 28 28 28 28 28 28 29 30 30
28 28 28 28 27 26 26 25 25 26 26 26 26 26 27 27 28 29 29 29 29 29 29 29 30 30 30 30 31 31 30 30 30 30 30 30 30 30 30 31 31 32 32
31 30 30 30 29 27 27 27 27 27 28 28 27 27 28 28 29 29 30 31 31 31 31 31 31 32 32 32 32 33 32 32 32 32 32 32 32 33 33 33 33 33 33
34 33 31 30 30 29 29 30 29 29 29 29 29 29 29 30 30 31 32 32 33 33 34 34 33 33 34 34 34 34 34 34 34 34 34 34 34 35 35 35 35 35 35
33 32 31 31 31 31 31 31 30 30 30 30 30 30 31 32 32 33 34 34 34 34 34 35 35 34 34 34 34 35 35 35 34 34 35 34 34 35 35 35 36 35 35
31 32 32 32 32 32 31 31 31 31 31 31 32 32 33 34 35 35 35 35 35 35 35 35 35 35 35 35 35 35 35 35 35 35 35 35 35 35 35 35 36 36 36
31 32 32 32 32 31 31 31 31 31 32 33 34 34 34 35 36 36 36 36 36 36 36 35 35 35 35 35 35 35 35 36 36 36 36 37 36 36 36 36 37 37 37
32 32 32 32 32 32 32 32 32 33 33 34 35 36 36 37 37 37 38 37 37 37 36 36 36 36 36 36 36 36 36 36 36 36 36 37 37 37 37 38 38 38 38
31 32 32 32 32 33 33 33 34 34 35 35 36 36 37 37 38 38 38 37 37 37 38 37 37 37 37 38 38 37 37 37 37 37 37 37 37 37 37 37 37 37 37
32 32 32 33 33 33 34 34 35 35 36 36 37 37 38 38 38 37 38 38 37 37 37 37 38 38 39 38 38 38 38 38 39 37 37 37 37 36 36 36 37 37 37
34 33 33 33 33 34 35 36 36 37 37 38 38 39 39 39 39 40 40 39 38 38 38 38 38 38 38 38 38 38 38 38 38 38 37 37 37 37 37 37 36 36 37
34 34 34 34 34 35 36 37 37 38 38 39 39 39 39 40 40 39 39 39 40 39 39 39 39 39 39 39 40 40 40 39 39 39 38 37 37 37 37 37 36 36 37
33 34 34 35 36 36 37 38 39 39 40 40 40 40 39 40 40 40 40 40 39 39 39 39 39 39 39 40 40 39 39 38 37 36 36 36 36 36 36 36 36 37 37
34 34 34 35 37 37 37 37 38 39 39 40 40 40 40 40 40 40 40 40 40 39 39 39 38 38 38 37 37 36 36 36 37 36 36 36 36 36 36 36 37 38 38
31 32 33 35 36 36 37 37 38 39 39 39 39 39 38 38 38 37 38 38 38 38 38 38 37 37 37 36 36 36 37 37 37 37 36 36 36 36 36 37 37 37 36
30 30 31 32 33 34 35 36 36 36 36 37 38 38 38 38 37 37 37 37 37 37 37 36 35 36 35 35 35 35 36 36 36 36 36 36 36 36 36 36 36 35 35
Wind_Direction
322 318 310 306 302 294 290 285 285 284 286 291 291 291 292 295 299 300 301 303 306 307 306 304 304 304 302 303 301 297 293 291 291 292 293 292 293 294 290 292 294 294 293
316 312 309 302 299 294 289 283 283 282 282 287 290 290 290 291 294 297 299 300 302 302 301 300 302 301 299 300 299 297 293 290 289 289 291 291 290 290 289 288 287 288 289
310 307 307 305 298 292 287 286 284 284 284 286 289 290 290 290 292 294 296 297 298 298 297 296 297 299 296 295 296 295 293 291 290 290 289 289 287 287 287 286 283 284 285
308 307 305 304 299 294 287 284 282 282 282 283 284 287 288 288 289 290 292 292 292 292 294 296 297 297 296 294 294 294 292 291 291 290 290 289 287 286 285 284 282 283 284
309 307 305 301 297 295 291 288 285 284 283 281 281 284 286 287 288 288 290 289 289 289 291 296 296 295 295 295 293 293 291 290 289 288 287 288 288 286 284 282 281 280 281
308 306 305 301 297 291 287 288 286 282 281 280 280 281 284 286 288 288 289 289 289 289 290 292 294 293 293 292 292 292 291 290 289 287 285 285 286 285 284 281 279 279 280
303 302 302 301 299 295 289 285 284 282 280 281 281 281 283 284 285 287 289 288 289 291 292 294 295 294 293 292 291 292 292 292 291 289 285 285 285 285 284 282 278 277 279
299 298 299 298 297 296 294 291 286 282 280 281 280 280 281 282 284 287 287 287 290 291 292 294 295 295 295 293 292 293 292 292 292 292 289 287 286 285 284 282 279 280 280
293 293 295 295 295 296 294 291 287 284 281 281 280 280 281 283 284 288 288 291 293 294 294 295 296 296 296 296 295 294 292 292 292 292 290 288 287 285 284 283 282 283 282
289 290 290 292 293 293 292 289 286 284 282 281 281 282 284 285 287 289 290 291 292 293 293 294 294 294 296 296 294 292 292 291 290 291 290 288 287 286 285 284 283 283 283
286 288 288 289 289 291 291 289 287 285 284 283 284 285 286 286 288 290 290 292 293 293 293 294 293 293 294 294 293 291 290 289 288 289 288 287 287 286 286 285 284 284 284
284 285 286 286 286 287 288 287 287 286 286 286 285 286 287 287 288 289 290 291 292 292 292 292 292 293 293 292 291 290 290 289 288 287 287 286 286 286 286 286 285 284 284
282 283 284 284 285 285 286 286 286 286 286 286 285 285 286 287 287 288 289 290 291 291 291 291 291 291 291 291 290 289 290 289 288 287 286 286 285 285 285 285 285 284 284
281 281 282 283 283 284 286 287 286 286 285 285 285 285 284 286 287 288 289 289 290 290 290 289 288 289 289 289 289 288 288 289 289 288 286 286 286 284 284 284 285 284 284
281 279 279 280 282 282 284 285 285 285 285 286 286 285 286 286 288 289 289 289 290 290 289 288 288 288 289 288 288 288 288 289 289 288 287 286 286 285 284 284 283 284 284
280 279 279 280 281 281 281 282 284 285 286 286 286 286 287 287 289 290 290 289 290 290 289 289 289 288 288 288 288 288 287 287 288 288 287 285 285 285 286 284 283 283 283
280 280 279 278 279 280 282 283 284 285 286 287 287 287 287 288 290 290 290 290 290 290 289 288 288 288 289 289 288 288 287 287 287 288 287 286 285 286 286 285 284 283 283
278 278 278 277 278 280 281 281 282 283 285 286 287 287 287 288 288 289 290 290 290 289 288 288 288 288 288 289 289 288 287 287 287 287 287 287 286 285 285 284 283 283 283
276 275 275 275 278 280 281 281 282 283 284 286 286 287 288 288 288 289 289 288 289 288 288 287 288 289 288 288 288 287 287 288 287 287 287 287 285 285 284 283 283 283 283
276 274 275 276 278 280 282 283 283 284 285 286 286 287 287 287 287 288 289 289 288 289 288 287 287 286 286 286 287 287 288 288 287 287 287 287 286 285 284 283 283 283 283
276 276 276 277 278 280 282 283 284 285 285 286 286 287 286 286 286 287 288 288 288 287 287 287 287 286 286 285 286 286 287 288 288 287 287 286 286 284 285 285 284 283 283
278 278 278 278 280 281 282 283 285 286 286 287 287 288 287 287 287 288 289 287 286 287 286 286 287 288 287 286 286 286 285 287 288 287 286 285 285 285 285 285 285 285 285
281 280 279 279 280 281 282 282 283 284 285 286 287 288 289 290 289 287 288 289 289 288 287 288 289 289 288 287 287 286 285 285 286 287 287 286 285 284 284 284 285 286 286
283 282 281 281 282 283 283 284 284 285 286 287 288 289 290 291 291 290 290 291 292 291 289 289 291 291 290 290 288 286 287 287 287 287 287 286 286 285 284 285 286 286 286
288 287 285 284 284 285 285 285 285 286 287 288 289 290 290 291 291 291 289 291 293 294 293 292 292 292 291 291 290 289 288 288 287 288 288 287 287 286 286 286 286 287 287
290 290 290 291 291 290 289 288 288 288 288 289 289 289 290 290 291 291 291 292 293 294 296 295 295 294 293 293 293 292 290 289 288 288 288 287 287 287 287 287 288 288 287
Height
5898 5896 5895 5894 5893 5892 5891 5890 5889 5888 5887 5886 5885 5884 5883 5882 5881 5879 5878 5876 5874 5872 5870 5868 5867 5865 5863 5862 5860 5858 5857 5855 5854 5854 5852 5850 5849 5848 5846 5845 5843 5842 5841
5895 5894 5892 5891 5890 5889 5888 5887 5886 5885 5884 5883 5882 5881 5880 5879 5877 5876 5874 5872 5870 5868 5867 5865 5863 5861 5860 5858 5855 5854 5852 5851 5849 5848 5847 5845 5844 5842 5841 5840 5838 5837 5836
5891 5890 5889 5888 5887 5886 5884 5883 5882 5881 5880 5879 5878 5877 5876 5874 5873 5871 5870 5868 5866 5864 5862 5860 5858 5856 5855 5853 5851 5849 5847 5846 5844 5843 5842 5840 5838 5837 5835 5834 5832 5832 5830
5887 5887 5885 5884 5883 5882 5881 5879 5878 5877 5876 5875 5874 5872 5871 5869 5868 5867 5865 5863 5861 5859 5857 5855 5853 5851 5849 5847 5845 5843 5842 5840 5838 5837 5835 5834 5832 5831 5829 5827 5826 5825 5824
5884 5883 5881 5880 5879 5877 5876 5875 5874 5872 5871 5870 5869 5867 5866 5864 5863 5861 5860 5858 5855 5853 5851 5849 5847 5845 5843 5841 5839 5837 5836 5834 5832 5830 5829 5827 5826 5824 5822 5821 5820 5819 5818
5879 5878 5876 5875 5873 5872 5871 5870 5868 5867 5866 5865 5863 5862 5860 5859 5857 5855 5854 5852 5850 5848 5845 5843 5841 5839 5836 5834 5833 5831 5829 5827 5825 5823 5821 5820 5818 5817 5815 5814 5813 5812 5811
5875 5873 5871 5870 5868 5867 5865 5864 5863 5861 5860 5859 5857 5856 5855 5853 5851 5849 5847 5845 5843 5841 5838 5836 5834 5831 5829 5827 5825 5823 5821 5819 5818 5816 5813 5812 5811 5809 5808 5806 5805 5803 5802
5869 5867 5866 5864 5863 5861 5859 5857 5856 5855 5854 5852 5851 5850 5848 5846 5844 5843 5841 5839 5836 5834 5832 5830 5827 5824 5822 5820 5818 5816 5814 5812 5810 5808 5806 5804 5803 5801 5799 5798 5796 5795 5794
5863 5861 5860 5858 5856 5854 5853 5851 5849 5848 5847 5846 5844 5843 5841 5839 5837 5836 5834 5832 5829 5827 5824 5822 5820 5817 5815 5813 5810 5808 5806 5804 5802 5800 5798 5796 5794 5792 5791 5789 5788 5787 5785
5856 5855 5853 5851 5850 5848 5846 5844 5842 5841 5840 5838 5837 5835 5834 5832 5830 5829 5827 5824 5822 5819 5817 5815 5812 5810 5807 5804 5802 5800 5798 5796 5793 5791 5789 5788 5786 5784 5782 5780 5779 5778 5776
5849 5847 5846 5844 5842 5841 5839 5837 5835 5833 5832 5830 5829 5828 5826 5824 5823 5821 5819 5817 5814 5812 5810 5807 5804 5802 5799 5796 5794 5792 5789 5787 5785 5782 5780 5779 5777 5775 5773 5771 5770 5768 5767
5841 5840 5839 5837 5835 5834 5832 5830 5828 5826 5824 5823 5821 5820 5818 5816 5814 5812 5810 5808 5806 5804 5801 5799 5796 5793 5790 5788 5785 5783 5780 5778 5775 5773 5771 5769 5767 5766 5764 5762 5760 5758 5757
5833 5832 5830 5829 5827 5826 5824 5822 5820 5819 5817 5815 5813 5812 5810 5808 5806 5804 5802 5799 5797 5795 5792 5789 5787 5784 5781 5778 5776 5773 5771 5768 5766 5764 5762 5759 5757 5755 5754 5752 5750 5749 5747
5824 5823 5821 5820 5818 5817 5816 5814 5812 5811 5809 5807 5805 5803 5801 5799 5797 5795 5792 5790 5787 5785 5782 5779 5777 5774 5771 5768 5766 5763 5760 5758 5755 5753 5751 5749 5747 5745 5743 5741 5740 5738 5736
5814 5813 5812 5810 5809 5808 5807 5805 5804 5802 5800 5798 5796 5794 5792 5791 5788 5785 5783 5780 5777 5775 5772 5769 5766 5763 5761 5758 5755 5752 5750 5747 5745 5743 5740 5738 5736 5734 5732 5730 5728 5726 5725
5804 5804 5803 5802 5800 5799 5797 5796 5795 5793 5791 5789 5787 5785 5782 5780 5778 5775 5773 5770 5767 5764 5761 5759 5756 5753 5750 5747 5745 5742 5739 5737 5734 5731 5729 5727 5725 5723 5721 5718 5716 5715 5713
5795 5794 5793 5792 5791 5789 5788 5787 5786 5784 5782 5779 5777 5775 5773 5770 5767 5765 5762 5759 5756 5753 5750 5748 5745 5742 5739 5737 5734 5731 5729 5726 5723 5720 5718 5715 5713 5712 5709 5707 5705 5703 5701
5785 5784 5783 5782 5781 5780 5778 5777 5776 5774 5772 5770 5767 5765 5762 5760 5757 5754 5751 5748 5745 5742 5740 5737 5734 5731 5728 5726 5723 5720 5718 5715 5712 5709 5706 5704 5701 5699 5697 5695 5692 5691 5689
5775 5774 5773 5773 5771 5770 5768 5767 5765 5763 5761 5759 5757 5755 5752 5749 5746 5743 5739 5737 5734 5731 5728 5725 5723 5720 5717 5714 5711 5709 5706 5703 5700 5697 5694 5692 5689 5687 5685 5682 5680 5678 5676
5766 5764 5763 5763 5761 5760 5758 5756 5754 5752 5750 5748 5746 5744 5741 5738 5735 5732 5729 5726 5722 5719 5716 5713 5710 5708 5705 5702 5699 5696 5694 5691 5688 5685 5682 5679 5677 5675 5672 5670 5668 5666 5664
5756 5754 5753 5752 5751 5749 5747 5745 5743 5741 5739 5737 5735 5732 5729 5726 5724 5721 5718 5714 5711 5708 5704 5701 5698 5695 5692 5689 5687 5684 5681 5678 5675 5672 5669 5667 5665 5662 5660 5657 5655 5653 5651
5745 5743 5742 5741 5739 5738 5736 5734 5731 5729 5727 5725 5722 5720 5717 5714 5711 5708 5705 5702 5698 5695 5692 5689 5685 5682 5680 5677 5674 5671 5669 5666 5663 5660 5657 5654 5652 5650 5647 5645 5642 5640 5638
5734 5732 5731 5730 5728 5726 5724 5722 5720 5718 5716 5713 5711 5708 5705 5702 5698 5695 5693 5689 5686 5682 5680 5676 5673 5669 5667 5663 5660 5657 5655 5652 5650 5647 5645 5642 5639 5637 5634 5632 5630 5627 5625
5723 5722 5721 5719 5717 5715 5712 5710 5708 5706 5703 5701 5698 5695 5692 5689 5686 5683 5680 5678 5674 5670 5667 5664 5660 5657 5654 5651 5648 5645 5642 5640 5637 5635 5632 5629 5627 5624 5622 5619 5617 5614 5612
5714 5712 5710 5708 5706 5703 5701 5699 5696 5694 5691 5689 5686 5683 5680 5677 5674 5671 5668 5665 5662 5658 5655 5651 5648 5645 5642 5639 5636 5634 5631 5628 5625 5622 5619 5617 5614 5611 5609 5606 5604 5602 5599
5705 5702 5700 5697 5695 5692 5690 5687 5685 5682 5680 5677 5674 5671 5668 5666 5663 5660 5657 5654 5650 5647 5643 5640 5637 5634 5631 5627 5624 5621 5618 5615 5612 5609 5606 5604 5601 5598 5596 5593 5591 5589 5587